Split Airport, Croatia

7:45 AM CEST on May 21, 2018 (GMT +0200)
Kastela

Weather History for LDSP - January, 2013

Change the Weather History Date:

Monday, January 21, 2013

  Actual Average Record
Temperature  
Mean Temperature 54 °F -  
Max Temperature 57 °F - - ()
Min Temperature 50 °F - - ()
Degree Days  
Heating Degree Days 12    
Growing Degree Days 4 (Base 50)    
Moisture  
Dew Point 51 °F    
Average Humidity 86    
Maximum Humidity 94    
Minimum Humidity 77    
Precipitation  
Precipitation 0.35 in - - ()
Sea Level Pressure  
Sea Level Pressure 29.43 in    
Wind  
Wind Speed 10 mph ()    
Max Wind Speed 18 mph    
Max Gust Speed 24 mph    
Visibility 6.4 miles    
Events Rain , Thunderstorm    
T = Trace of Precipitation, MM = Missing Value Source: Averaged Metar Reports

Daily Weather History Graph

Daily Weather History Graph

Search for Another Location

Airport or City:

Astronomy

Jan. 21, 2013 Rise Set
Actual Time 7:21 AM CET 4:51 PM CET
Civil Twilight 6:49 AM CET 5:22 PM CET
Nautical Twilight 6:14 AM CET 5:57 PM CET
Astronomical Twilight 5:40 AM CET 6:31 PM CET
Moon 12:19 PM CET 2:33 AM CET
Length of Visible Light 10h 33m
Length of Day
9h 30m
Waxing Gibbous, 73% of the Moon is Illuminated
Jan 21
Waxing Gibbous
Jan 27
Full
Feb 3
Last Quarter
Feb 10
New
Feb 17
First Quarter

Hourly Weather History & Observations

Time (CET) Temp. Dew Point Humidity Pressure Visibility Wind Dir Wind Speed Gust Speed Precip Events Conditions
12:00 AM 57.2 °F 55.4 °F 94% 29.53 in 6.2 mi SE 9.2 mph - N/A Rain Light Rain
12:30 AM 57.2 °F 55.4 °F 94% 29.50 in 6.2 mi SE 12.7 mph - N/A   Mostly Cloudy
1:00 AM 58 °F 55 °F 86% 29.52 in 9 mi SE 13.4 mph - - Rain Light Rain
1:00 AM 59.0 °F 55.4 °F 88% 29.50 in 6.2 mi SE 12.7 mph 24.2 mph N/A   Mostly Cloudy
1:30 AM 59.0 °F 55.4 °F 88% 29.50 in 6.2 mi SE 13.8 mph - N/A Rain Light Rain
2:00 AM 57.2 °F 53.6 °F 88% 29.50 in 6.2 mi SE 15.0 mph - N/A Rain Light Rain
2:30 AM 59.0 °F 53.6 °F 82% 29.50 in 6.2 mi SE 12.7 mph - N/A Rain Light Rain
3:00 AM 59.0 °F 53.6 °F 82% 29.50 in 6.2 mi SSE 15.0 mph - N/A Rain Light Rain
3:30 AM 57.2 °F 53.6 °F 88% 29.47 in 6.2 mi SSE 15.0 mph - N/A Rain Light Rain
4:00 AM 58 °F 54 °F 82% 29.49 in 7 mi SSE 15.7 mph - - Rain Light Rain
4:00 AM 57.2 °F 53.6 °F 88% 29.47 in 6.2 mi SSE 15.0 mph - N/A Rain Light Rain
4:30 AM 57.2 °F 53.6 °F 88% 29.47 in 6.2 mi SSE 13.8 mph - N/A Rain Light Rain
5:00 AM 57.2 °F 53.6 °F 88% 29.47 in 6.2 mi SSE 13.8 mph - N/A Rain Light Rain
5:30 AM 57.2 °F 53.6 °F 88% 29.47 in 6.2 mi SSE 15.0 mph - N/A Rain Light Rain
6:00 AM 57.2 °F 53.6 °F 88% 29.47 in 6.2 mi SSE 11.5 mph - N/A Rain Light Rain
6:30 AM 57.2 °F 51.8 °F 82% 29.47 in 6.2 mi SE 9.2 mph - N/A Rain Light Rain
7:00 AM 56 °F 53 °F 85% 29.49 in 7 mi ESE 13.4 mph - - Rain Light Rain
7:00 AM 57.2 °F 53.6 °F 88% 29.47 in 6.2 mi ESE 13.8 mph - N/A Rain Light Rain
7:30 AM 57.2 °F 53.6 °F 88% 29.47 in 6.2 mi ESE 11.5 mph - N/A Rain Light Rain
8:00 AM 57.2 °F 53.6 °F 88% 29.47 in 6.2 mi ESE 10.4 mph - N/A Rain Light Rain
8:30 AM 57.2 °F 53.6 °F 88% 29.47 in 6.2 mi East 11.5 mph - N/A Rain Light Rain
9:00 AM 57.2 °F 53.6 °F 88% 29.47 in 6.2 mi ESE 9.2 mph - N/A   Mostly Cloudy
9:30 AM 57.2 °F 51.8 °F 82% 29.47 in 6.2 mi ESE 9.2 mph - N/A   Mostly Cloudy
10:00 AM 57 °F 52 °F 77% 29.48 in 9 mi East 11.2 mph - - Rain Light Rain
10:00 AM 57.2 °F 51.8 °F 82% 29.47 in - East 10.4 mph - N/A   Clear
10:30 AM 57.2 °F 51.8 °F 82% 29.44 in 6.2 mi ESE 10.4 mph - N/A   Scattered Clouds
11:00 AM 57.2 °F 51.8 °F 82% 29.44 in 6.2 mi ESE 12.7 mph - N/A Rain Light Rain
11:30 AM 57.2 °F 51.8 °F 82% 29.39 in 6.2 mi East 10.4 mph - N/A Rain Light Rain
12:00 PM 53.6 °F 51.8 °F 94% 29.42 in 1.9 mi Variable 10.4 mph 23.0 mph N/A Rain , Thunderstorm Heavy Thunderstorms and Rain
12:30 PM 51.8 °F 48.2 °F 88% 29.39 in 6.2 mi East 8.1 mph - N/A   Mostly Cloudy
1:00 PM 53 °F 48 °F 78% 29.38 in 7 mi ESE 2.2 mph - - Rain Light Rain
1:00 PM 51.8 °F 48.2 °F 88% 29.36 in 6.2 mi Variable 2.3 mph - N/A Rain Light Rain
1:30 PM 53.6 °F 50.0 °F 88% 29.36 in 6.2 mi SE 6.9 mph - N/A Rain Light Rain
2:00 PM 53.6 °F 50.0 °F 88% 29.36 in 6.2 mi SE 6.9 mph - N/A Rain Light Rain
2:30 PM 51.8 °F 48.2 °F 88% 29.36 in 6.2 mi East 11.5 mph - N/A Rain Light Rain
3:00 PM 51.8 °F 48.2 °F 88% 29.36 in 6.2 mi ENE 6.9 mph - N/A   Mostly Cloudy
3:30 PM 51.8 °F 48.2 °F 88% 29.36 in 6.2 mi ENE 6.9 mph - N/A Rain Rain
4:00 PM 53 °F 48 °F 79% 29.36 in 9 mi East 6.7 mph - - Rain Light Rain
4:00 PM 53.6 °F 48.2 °F 82% 29.36 in 6.2 mi East 6.9 mph - N/A   Mostly Cloudy
4:30 PM 53.6 °F 48.2 °F 82% 29.33 in 6.2 mi East 10.4 mph - N/A   Mostly Cloudy
5:00 PM 53.6 °F 48.2 °F 82% 29.33 in 6.2 mi ESE 9.2 mph - N/A   Mostly Cloudy
5:30 PM 53.6 °F 50.0 °F 88% 29.33 in 6.2 mi East 8.1 mph - N/A   Mostly Cloudy
6:00 PM 53.6 °F 50.0 °F 88% 29.33 in 6.2 mi ESE 8.1 mph - N/A   Mostly Cloudy
6:30 PM 53.6 °F 50.0 °F 88% 29.36 in 6.2 mi SSW 8.1 mph - N/A   Mostly Cloudy
7:00 PM 54 °F 49 °F 77% 29.37 in 9 mi SW 4.5 mph - -   Overcast
7:00 PM 53.6 °F 48.2 °F 82% 29.36 in 6.2 mi SW 4.6 mph - N/A   Mostly Cloudy
7:30 PM 53.6 °F 50.0 °F 88% 29.36 in 6.2 mi SW 8.1 mph - N/A   Mostly Cloudy
8:00 PM 53.6 °F 48.2 °F 82% 29.39 in 6.2 mi WSW 8.1 mph - N/A   Mostly Cloudy
8:30 PM 51.8 °F 48.2 °F 88% 29.39 in 6.2 mi WSW 18.4 mph - N/A Rain Rain
9:00 PM 50.0 °F 48.2 °F 94% 29.42 in 6.2 mi West 12.7 mph - N/A Rain Rain
9:30 PM 50.0 °F 46.4 °F 87% 29.42 in 6.2 mi WNW 10.4 mph - N/A Rain Light Rain
10:00 PM 50 °F 46 °F 81% 29.45 in 6 mi NW 8.9 mph - - Rain Light Rain
10:00 PM 50.0 °F 46.4 °F 87% 29.44 in 6.2 mi NW 9.2 mph - N/A Rain Light Rain
10:30 PM 50.0 °F 44.6 °F 82% 29.44 in 6.2 mi WNW 11.5 mph 24.2 mph N/A   Mostly Cloudy
11:00 PM 50.0 °F 44.6 °F 82% 29.47 in 6.2 mi WNW 12.7 mph - N/A   Scattered Clouds
11:30 PM 50.0 °F 44.6 °F 82% 29.47 in 6.2 mi West 5.8 mph - N/A   Scattered Clouds